{"data":{"norad_id":43078,"intl_designator":"2017-083J","name":"IRIDIUM 153","alt_names":[],"object_type":"PAYLOAD","status":"ACTIVE","operator":null,"country":"US","launch_date":"2017-12-23","launch_site_code":"AFWTR","launch_vehicle":null,"mission":null,"orbit_class":"UNKNOWN","rcs_meters":null,"size_class":null,"mass_kg":null,"dimensions":null,"purposes":["comms"],"wikipedia_slug":null,"has_3d_model":false,"image_url":null,"decayed_at":null,"tle_current":{"epoch":"2026-05-25T03:08:27.351168Z","epoch_age_seconds":70665,"freshness":"FRESH","line1":"1 43078U 17083J   26145.13087212  .00000216  00000+0  70034-4 0  9999","line2":"2 43078  86.3940 300.1147 0002367  92.6334 267.5133 14.34219243441970","mean_motion":14.34219243,"eccentricity":0.0002367,"inclination_deg":86.394,"raan_deg":300.1147,"arg_perigee_deg":92.6334,"mean_anomaly_deg":267.5133,"bstar":7.0034e-5,"rev_number":44197,"period_min":100.40305950629,"perigee_km":775.96841063062,"apogee_km":779.35596596636,"semimajor_km":7155.7991882985,"source":"CELESTRAK","updated_at":"2026-05-25T13:38:14.806526Z"}}}